Find Starlink 30332

NORAD ID: 57700 Int'l Des: 2023-129 Owner: SPXS Country: US Constellation: starlink operational
LEOCIRCULAR

Current View

Loading 3D Globe...

About Starlink 30332

Starlink 30332 (NORAD 57700) is a starlink constellation satellite (v2 mini) launched Aug 27, 2023 by SPXS of US. It operates in LEO, CIRCULAR orbit with a mass of 730.00 kg.

Upcoming Passes

Passes for default location (London). Set your location on the main map for personalized predictions.

Altitude History

Loading altitude history...

Two-Line Element Set

1 57700U 23129C 26236.33586941 .00000164 00000-0 15494-4 0 9992
2 57700 43.0041 258.6308 0002008 281.1331 78.9295 15.27574385166093
Epoch: Aug 24, 2026 • Age: 27 hours

Current Status

Altitude 482.0 km
Apogee / Perigee N/A
Velocity 7.63 km/s
Sub-Earth Point 8.07°N, 125.47°E
Launch Date Aug 27, 2023
Age 2.9 years
Type internet

Technical Details

Classification Payload
Mass 730.00 kg
Dry Mass 700.00 kg
Total Mass 730.00 kg
Length 0.30 m
Diameter 4.10 m
Span 29.00 m
Shape Box + pan
Manufacturer SPXS
Bus Type Starlink V2M
Phase Status In Orbit
Owner/State SPXS/US

Most Searched